Tracking 30743 objects as of 21-Jun-2025
HD Live streaming from Space Station
objects crossing your sky now

NOAA 16 DEB

Track NOAA 16 DEB now!
10-day predictions


NORAD ID: 42428
Int'l Code: 2000-055TY
Perigee: 791.9 km
Apogee: 827.7 km
Inclination: 98.9 °
Period: 100.9 minutes
Semi major axis: 7180 km
RCS: Unknown
Launch date: September 21, 2000
Source: United States (US)
Launch site: AIR FORCE WESTERN TEST RANGE (AFWTR)

Note: This is SATELLITE DEBRIS
Your satellite tracking list
Your tracking list is empty




NASA's NSSDC Master Catalog

Two Line Element Set (TLE):
1 42428U 00055TY  25169.07052858  .00001645  00000-0  69627-3 0  9997
2 42428  98.9330 298.9278 0024975 201.1650 158.8498 14.26736963438837
Source of the keplerian elements: AFSPC